Погода в Печмене

Россия / Пермский край     56°49′27″N   56°01′24″E
темп.,
°C
ветер,
м/с
пор.,
м/с
влажн.,
%
обл.,
%
осадки,
мм/ч
давл.,
гПа
погр.,
м
13 июня, вс
вс1323:00+13вюв41389100 0.5 1018308
02:00+14вюв5147174 0.0 1018318
05:00+15юв4146012 0.0 1017329
08:00+17ююв6126684 0.0 1018486
11:00+20ю71168100 0.0 1018937
14:00+19ююв6106827 0.0 1018979
17:00+21ю7117151 0.0 10181087
20:00+19ююв3884100 0.8 1017305
14 июня, пн
пн1423:00+16ююв3109182 0.8 1018216
02:00+14ююв389346 0.0 1018152
05:00+13ююв22865 0.0 101819
08:00+17ююв357559 0.0 1019195
11:00+21ю566274 0.0 1018547
14:00+24ююз5658100 0.0 1018955
17:00+25ююз4663100 0.0 10181264
20:00+21ююз3482100 1.7 101770
15 июня, вт
вт1523:00+18ююз339175 1.7 101744
02:00+16ююз229099 0.2 101727
05:00+16ю2292100 0.4 101619
08:00+19ю2487100 0.1 1016179
11:00+23ююз456486 0.1 1016596
14:00+23ююз456387 0.0 1015801
17:00+23ююз3669100 0.0 1014495
20:00+20юз3882100 0.8 1014187
16 июня, ср
ср1623:00+17юз228890 1.4 101524
02:00+18юв2387100 0.1 101457
05:00+17ю2286100 0.1 101336
08:00+19ююз24865 0.0 1012236
11:00+24ююз35634 0.0 1012667
14:00+27ююз58535 0.0 10101438
17:00+27ююз585911 0.0 10091666
20:00+24ююз38746 0.0 1008334
17 июня, чт
чт1723:00+19ю358945 0.1 100791
02:00+17ю228631 0.0 100514
05:00+16з1196100 6.1 100513
08:00+16ссз5109679 4.1 1006574
11:00+17ссз7106830 4.4 10071005
14:00+18сз89546 0.0 10081923
17:00+17сз7115926 0.1 10101846
20:00+13ссз813640 0.1 10131059